Terre Haute International Hulman Field
KHUF : now visible

Airfield :











YOU CAN JOIN US ON...

 
LOGIN :

Register | Disclaimer

   EN    FR    IT 

 









Legend :    VFR   Marginal VFR   IFR   Intensive IFR   Very Intensive IFR
Visi :
Ceiling :
>= 8 km
>= 3000ft
5 to 8 km
1000 to 3000 ft
1500m to 5 km
500 to 1000 ft
800 to 1500m
200 to 500 ft
< 800m
< 200 ft
Symbols :   Thunderstorms  Fog  Heavy snow  Heavy precipitations  Wind > 20 kt






- Airport Elevation : 589 ft
- IATA code : HUF


KHUF - Terre Haute International Hulman Field

CURRENT METAR :
  • 231053Z 21004KT 9SM FEW080 FEW100 07/07 A3004 RMK AO2 SLP175 T00670067

EXPIRED METARs :
  • 230953Z 00000KT 10SM OVC080 08/08 A3003 RMK AO2 SLP170 T00830078
  • 230853Z AUTO 00000KT 8SM OVC085 08/07 A3002 RMK AO2 SLP168 T00780072 58002

TAF KHUF
Valid from the 23 at 06:00 until the 24 at 06:00 UTC


230520Z 2306/2406 26003KT P6SM SCT090
TEMPO 2308/2312 2SM BR
FM231200 18003KT P6SM SCT090
FM231800 14004KT P6SM OVC045
FM240000 10005KT P6SM BKN030
KZID FIR / North America



MET'MAP, your aeronautical weather chart ! - Copyright ORBIFLY December 2007 - Disclaimer

ORBIFLY MET'MAP TEAM :

Programming & Development : Alexandra Zaïnal
Concept & original design : Baudouin d'Aumeries
Assistance for programming : Marc-Olivier Méhu
Technical & hardware support : Manuel Goepfert

Contact : metmap@orbifly.com




SOURCES & CREDITS :

   NOAA       Earth
Advisory